This is the latest recevied weather packets stored in our database for station/object K7KAR-2. If no packets are shown the sender has not sent any weather packets the latest 10 day(s).
| Time | Temp. | Humidity | Pressure | Rain* | Wind** | Luminosity | Snow |
|---|---|---|---|---|---|---|---|
| 1777665611 | 20.56° C | 10% | 1017.6 hPa | 0 mm | - | 790 W/m² | - |
| 1777665308 | 21.11° C | 10% | 1017.4 hPa | 0 mm | - | 784 W/m² | - |
| 1777665003 | 21.11° C | 10% | 1017.5 hPa | 0 mm | - | 791 W/m² | - |
| 1777664699 | 20° C | 10% | 1017.6 hPa | 0 mm | - | 785 W/m² | - |
| 1777664395 | 20° C | 10% | 1017.7 hPa | 0 mm | - | 780 W/m² | - |
| 1777664093 | 18.89° C | 10% | 1017.5 hPa | 0 mm | - | 798 W/m² | - |
| 1777663790 | 19.44° C | 10% | 1017.6 hPa | 0 mm | - | 803 W/m² | - |
| 1777663488 | 19.44° C | 10% | 1017.6 hPa | 0 mm | - | 757 W/m² | - |
| 1777663185 | 20° C | 10% | 1017.7 hPa | 0 mm | - | 818 W/m² | - |
| 1777662881 | 19.44° C | 10% | 1018 hPa | 0 mm | - | 819 W/m² | - |
| 1777662579 | 20° C | 10% | 1017.8 hPa | 0 mm | - | 827 W/m² | - |
| 1777662274 | 19.44° C | 10% | 1018.1 hPa | 0 mm | - | 817 W/m² | - |
| 1777661969 | 18.89° C | 10% | 1018.2 hPa | 0 mm | - | 801 W/m² | - |
| 1777661666 | 18.89° C | 10% | 1017.9 hPa | 0 mm | - | 816 W/m² | - |
| 1777661362 | 18.89° C | 10% | 1018.1 hPa | 0 mm | - | 828 W/m² | - |
| 1777661059 | 18.89° C | 10% | 1018 hPa | 0 mm | - | 811 W/m² | - |
| 1777660753 | 18.89° C | 10% | 1018.1 hPa | 0 mm | - | 834 W/m² | - |
| 1777660451 | 18.33° C | 10% | 1018.1 hPa | 0 mm | - | 831 W/m² | - |
| 1777660147 | 18.89° C | 10% | 1018.2 hPa | 0 mm | - | 834 W/m² | - |
| 1777659844 | 18.89° C | 10% | 1018.2 hPa | 0 mm | - | 831 W/m² | - |
| 1777659541 | 19.44° C | 10% | 1018.2 hPa | 0 mm | - | 834 W/m² | - |
| 1777659238 | 18.89° C | 10% | 1018.4 hPa | 0 mm | - | 840 W/m² | - |
| 1777658935 | 18.33° C | 10% | 1018.6 hPa | 0 mm | - | 826 W/m² | - |
| 1777658631 | 18.33° C | 10% | 1018.4 hPa | 0 mm | - | 829 W/m² | - |
| 1777658329 | 17.78° C | 10% | 1018.5 hPa | 0 mm | - | 827 W/m² | - |
* Rain latest hour (hover to see other rain measurements)
** Current wind speed in m/s (hover to see current wind gust speed)